Weather History for KFOZ - April, 2014

Change the Weather History Date:

Saturday, April 26, 2014

  Actual Average (WUND) Record (WUND)
Temperature  
Mean Temperature 38 °F -  
Max Temperature 51 °F - - (-1)
Min Temperature 26 °F - - (-1)
Degree Days  
Heating Degree Days 26    
Moisture  
Dew Point 27 °F    
Average Humidity 66    
Maximum Humidity 93    
Minimum Humidity 38    
Precipitation  
Precipitation 0.00 in - - ()
Sea Level Pressure  
Sea Level Pressure 30.04 in    
Wind  
Wind Speed 6 mph (ESE)    
Max Wind Speed 15 mph    
Max Gust Speed 20 mph    
Visibility 10 miles    
Events      
Averages and records for this station are not official NWS values.
T = Trace of Precipitation, MM = Missing Value Source: NWS Daily Summary

Daily Weather History Graph

Daily Weather History Graph

Search for Another Location

Airport or City:

Trip Planner

Search our weather history database for the weather conditions in past years. The results will help you decide how hot, cold, wet, or windy it might be!

Date:

Astronomy

Apr. 26, 2014 Rise Set
Actual Time 6:05 AM CDT 8:20 PM CDT
Civil Twilight 5:31 AM CDT 8:54 PM CDT
Nautical Twilight 4:49 AM CDT 9:36 PM CDT
Astronomical Twilight 4:02 AM CDT 10:24 PM CDT
Moon 4:43 AM CDT (4/26) 5:38 PM CDT (4/26)
Length of Visible Light 15h 22m
Length of Day
14h 14m
Waning Crescent, 8% of the Moon is Illuminated
Apr 26
Waning Crescent
Apr 29
New
May 6
First Quarter
May 14
Full
May 21
Last Quarter

Hourly Weather History & Observations

Time (CDT) Temp. Windchill Dew Point Humidity Pressure Visibility Wind Dir Wind Speed Gust Speed Precip Events Conditions
12:41 AM 28.4 °F - 26.6 °F 93% 29.98 in 10.0 mi NE 1.2 mph - N/A   Clear
1:01 AM 28.4 °F - 26.6 °F 93% 29.98 in 10.0 mi NE 2.3 mph - N/A   Clear
1:41 AM 26.6 °F 22.6 °F 24.8 °F 93% 29.99 in 10.0 mi NNE 3.5 mph - N/A   Clear
2:01 AM 30.2 °F 26.7 °F 28.4 °F 93% 29.99 in 10.0 mi NE 3.5 mph - N/A   Clear
2:21 AM 28.4 °F - 26.6 °F 93% 30.00 in 10.0 mi ENE 1.2 mph - N/A   Clear
2:41 AM 28.4 °F - 26.6 °F 93% 30.00 in 10.0 mi NE 2.3 mph - N/A   Clear
3:01 AM 26.6 °F - 24.8 °F 93% 30.00 in 10.0 mi NE 1.2 mph - N/A   Clear
4:21 AM 28.4 °F 24.6 °F 26.6 °F 93% 30.00 in 10.0 mi NE 3.5 mph - N/A   Clear
4:41 AM 28.4 °F - 26.6 °F 93% 30.02 in 10.0 mi NE 2.3 mph - N/A   Clear
5:13 AM 28.4 °F 24.6 °F 26.6 °F 93% 30.02 in 10.0 mi ENE 3.5 mph - N/A   Clear
6:01 AM 28.4 °F 20.4 °F 26.6 °F 93% 30.03 in 10.0 mi East 8.1 mph - N/A   Overcast
6:41 AM 30.2 °F 25.4 °F 28.4 °F 93% 30.04 in 10.0 mi East 4.6 mph - N/A   Overcast
7:21 AM 30.2 °F 23.4 °F 28.4 °F 93% 30.05 in 10.0 mi East 6.9 mph - N/A   Overcast
7:41 AM 30.2 °F 23.4 °F 28.4 °F 93% 30.05 in 10.0 mi East 6.9 mph - N/A   Overcast
8:01 AM 30.2 °F 23.4 °F 28.4 °F 93% 30.05 in 5.0 mi East 6.9 mph - N/A   Overcast
8:21 AM 30.2 °F 21.9 °F 28.4 °F 93% 30.05 in 3.0 mi East 9.2 mph - N/A   Overcast
8:41 AM 32.0 °F 26.4 °F 28.4 °F 87% 30.06 in 2.5 mi SE 5.8 mph - N/A   Overcast
9:01 AM 32.0 °F 25.6 °F 28.4 °F 87% 30.07 in 5.0 mi ESE 6.9 mph - N/A   Overcast
9:21 AM 32.0 °F 25.6 °F 28.4 °F 87% 30.08 in 7.0 mi SE 6.9 mph - N/A   Overcast
9:56 AM 33.8 °F 29.6 °F 28.4 °F 81% 30.08 in 10.0 mi ESE 4.6 mph - N/A   Overcast
10:01 AM 33.8 °F 29.6 °F 28.4 °F 81% 30.08 in 10.0 mi ESE 4.6 mph - N/A   Overcast
10:21 AM 33.8 °F 27.7 °F 28.4 °F 81% 30.10 in 10.0 mi SE 6.9 mph - N/A   Overcast
10:41 AM 33.8 °F 28.6 °F 28.4 °F 81% 30.11 in 10.0 mi SE 5.8 mph - N/A   Overcast
11:01 AM 35.6 °F 30.7 °F 28.4 °F 75% 30.10 in 10.0 mi SE 5.8 mph - N/A   Overcast
11:21 AM 37.4 °F 32.1 °F 30.2 °F 75% 30.10 in 10.0 mi ESE 6.9 mph - N/A   Overcast
11:41 AM 37.4 °F 32.8 °F 30.2 °F 75% 30.09 in 10.0 mi ESE 5.8 mph - N/A   Mostly Cloudy
12:01 PM 39.2 °F 33.6 °F 30.2 °F 70% 30.08 in 10.0 mi SE 8.1 mph - N/A   Mostly Cloudy
12:21 PM 42.8 °F 40.1 °F 32.0 °F 66% 30.07 in 10.0 mi SE 4.6 mph - N/A   Scattered Clouds
12:41 PM 44.6 °F 38.1 °F 30.2 °F 57% 30.07 in 10.0 mi ESE 13.8 mph - N/A   Scattered Clouds
1:01 PM 44.6 °F 38.8 °F 30.2 °F 57% 30.06 in 10.0 mi East 11.5 mph - N/A   Clear
1:30 PM 46.4 °F 41.9 °F 30.2 °F 53% 30.05 in 10.0 mi SE 9.2 mph 17.3 mph N/A   Clear
1:41 PM 46.4 °F 41.9 °F 30.2 °F 53% 30.05 in 10.0 mi ESE 9.2 mph - N/A   Clear
2:01 PM 46.4 °F 40.7 °F 30.2 °F 53% 30.04 in 10.0 mi ESE 12.7 mph 17.3 mph N/A   Clear
2:21 PM 48.2 °F - 30.2 °F 50% 30.04 in 10.0 mi ESE 11.5 mph 17.3 mph N/A   Clear
2:41 PM 48.2 °F - 30.2 °F 50% 30.03 in 10.0 mi East 8.1 mph - N/A   Clear
3:01 PM 50.0 °F - 30.2 °F 47% 30.03 in 10.0 mi East 10.4 mph 19.6 mph N/A   Clear
3:21 PM 50.0 °F - 30.2 °F 47% 30.02 in 10.0 mi East 9.2 mph 18.4 mph N/A   Clear
3:41 PM 50.0 °F - 28.4 °F 43% 30.02 in 10.0 mi ENE 9.2 mph 18.4 mph N/A   Clear
4:14 PM 51.8 °F - 28.4 °F 41% 30.02 in 10.0 mi East 10.4 mph - N/A   Clear
4:21 PM 51.8 °F - 28.4 °F 41% 30.02 in 10.0 mi East 11.5 mph 16.1 mph N/A   Clear
4:41 PM 51.8 °F - 26.6 °F 38% 30.01 in 10.0 mi ESE 10.4 mph - N/A   Clear
5:02 PM 51.8 °F - 28.4 °F 41% 30.01 in 10.0 mi ESE 11.5 mph 17.3 mph N/A   Clear
5:24 PM 50.0 °F - 26.6 °F 40% 30.01 in 10.0 mi SE 10.4 mph 19.6 mph N/A   Clear
5:41 PM 50.0 °F - 26.6 °F 40% 30.01 in 10.0 mi ESE 15.0 mph 18.4 mph N/A   Clear
6:01 PM 48.2 °F - 26.6 °F 43% 30.01 in 10.0 mi ESE 10.4 mph 16.1 mph N/A   Clear
6:21 PM 48.2 °F - 26.6 °F 43% 30.01 in 10.0 mi ESE 10.4 mph - N/A   Clear
6:56 PM 46.4 °F 40.7 °F 26.6 °F 46% 30.01 in 10.0 mi ESE 12.7 mph - N/A   Clear
7:05 PM 46.4 °F 41.5 °F 26.6 °F 46% 30.01 in 10.0 mi ESE 10.4 mph 18.4 mph N/A   Clear
7:21 PM 46.4 °F 41.9 °F 26.6 °F 46% 30.01 in 10.0 mi East 9.2 mph - N/A   Clear
8:01 PM 44.6 °F 39.7 °F 24.8 °F 46% 30.01 in 10.0 mi ESE 9.2 mph 16.1 mph N/A   Clear
8:21 PM 42.8 °F 38.0 °F 24.8 °F 49% 30.02 in 10.0 mi ESE 8.1 mph - N/A   Clear
8:41 PM 42.8 °F 36.2 °F 24.8 °F 49% 30.02 in 10.0 mi ESE 12.7 mph 17.3 mph N/A   Clear
9:21 PM 39.2 °F 31.6 °F 23.0 °F 52% 30.05 in 10.0 mi ESE 12.7 mph 19.6 mph N/A   Clear
9:41 PM 39.2 °F 32.0 °F 21.2 °F 49% 30.07 in 10.0 mi ESE 11.5 mph 17.3 mph N/A   Clear
10:01 PM 37.4 °F 30.8 °F 21.2 °F 52% 30.07 in 10.0 mi ESE 9.2 mph 18.4 mph N/A   Clear
10:21 PM 37.4 °F 29.8 °F 19.4 °F 48% 30.07 in 10.0 mi ESE 11.5 mph - N/A   Clear
10:41 PM 37.4 °F 29.3 °F 19.4 °F 48% 30.08 in 10.0 mi ESE 12.7 mph 17.3 mph N/A   Clear
11:01 PM 35.6 °F 28.0 °F 19.4 °F 52% 30.09 in 10.0 mi ESE 10.4 mph 17.3 mph N/A   Clear
11:21 PM 35.6 °F 28.0 °F 19.4 °F 52% 30.09 in 10.0 mi ESE 10.4 mph 19.6 mph N/A   Scattered Clouds
11:41 PM 35.6 °F 28.0 °F 19.4 °F 52% 30.08 in 10.0 mi ESE 10.4 mph - N/A   Scattered Clouds